TimeCDT,TemperatureF,Dew PointF,Humidity,Sea Level PressureIn,VisibilityMPH,Wind Direction,Wind SpeedMPH,Gust SpeedMPH,PrecipitationIn,Events,Conditions,WindDirDegrees,DateUTC
12:15 AM,66.2,57.2,73,29.87,10.0,SSE,8.1,-,N/A,,Overcast,150,2013-03-10 06:15:00
12:35 AM,66.2,57.2,73,29.85,10.0,SE,13.8,19.6,N/A,,Overcast,140,2013-03-10 06:35:00
12:55 AM,65.8,57.2,74,29.86,10.0,SSE,10.4,21.9,N/A,,Overcast,150,2013-03-10 06:55:00
1:15 AM,65.7,57.4,75,29.84,10.0,SSE,16.1,20.7,N/A,,Overcast,150,2013-03-10 07:15:00
1:35 AM,65.7,57.4,75,29.83,10.0,SSE,10.4,19.6,N/A,,Mostly Cloudy,160,2013-03-10 07:35:00
1:55 AM,65.7,57.4,75,29.81,10.0,SE,12.7,21.9,N/A,,Overcast,140,2013-03-10 07:55:00
3:15 AM,65.7,57.6,75,29.82,10.0,SSE,8.1,18.4,N/A,,Overcast,160,2013-03-10 08:15:00
3:35 AM,65.5,57.6,76,29.82,10.0,South,8.1,17.3,N/A,,Overcast,170,2013-03-10 08:35:00
3:55 AM,65.7,58.1,77,29.82,10.0,SSE,9.2,-,N/A,,Overcast,160,2013-03-10 08:55:00
4:15 AM,65.5,58.1,77,29.83,10.0,SSE,6.9,-,N/A,,Overcast,160,2013-03-10 09:15:00
4:35 AM,65.5,58.1,77,29.82,10.0,SSE,8.1,-,N/A,,Overcast,160,2013-03-10 09:35:00
4:55 AM,65.5,58.3,77,29.79,10.0,SSE,8.1,-,N/A,,Overcast,150,2013-03-10 09:55:00
5:15 AM,65.3,58.5,78,29.76,10.0,SE,16.1,25.3,N/A,,Mostly Cloudy,140,2013-03-10 10:15:00
5:35 AM,65.3,58.6,79,29.73,10.0,SE,15.0,24.2,N/A,,Scattered Clouds,140,2013-03-10 10:35:00
5:55 AM,65.5,59.0,80,29.74,10.0,SE,12.7,26.5,N/A,,Mostly Cloudy,140,2013-03-10 10:55:00
6:15 AM,65.5,59.0,80,29.75,10.0,SSE,16.1,24.2,N/A,,Overcast,150,2013-03-10 11:15:00
7:35 AM,65.7,59.5,81,29.75,10.0,SSE,12.7,21.9,N/A,,Light Drizzle,150,2013-03-10 12:35:00
7:55 AM,65.5,59.5,81,29.76,10.0,SSE,11.5,23.0,N/A,Rain,Light Rain,160,2013-03-10 12:55:00
8:15 AM,64.9,59.9,84,29.76,10.0,SSE,6.9,20.7,N/A,Rain,Light Rain,160,2013-03-10 13:15:00
8:35 AM,64.4,60.4,87,29.76,7.0,South,10.4,16.1,0.04,Rain,Rain,170,2013-03-10 13:35:00
8:55 AM,55.0,51.8,89,29.79,3.0,NNW,21.9,31.1,0.16,Rain,Heavy Rain,330,2013-03-10 13:55:00
9:15 AM,53.6,50.9,91,29.82,3.0,NW,13.8,19.6,0.11,Rain,Heavy Rain,320,2013-03-10 14:15:00
9:35 AM,53.4,50.4,89,29.88,5.0,WNW,15.0,19.6,0.20,Rain,Rain,300,2013-03-10 14:35:00
9:55 AM,53.2,50.4,90,29.89,4.0,NW,11.5,20.7,0.29,Rain,Heavy Rain,320,2013-03-10 14:55:00
10:15 AM,53.2,50.4,90,29.88,7.0,NW,6.9,16.1,0.03,Rain,Rain,320,2013-03-10 15:15:00
10:35 AM,53.2,50.5,91,29.86,10.0,North,6.9,-,0.06,Rain,Rain,350,2013-03-10 15:35:00
10:55 AM,52.9,50.2,91,29.87,5.0,Calm,Calm,-,0.09,Rain,Rain,0,2013-03-10 15:55:00
11:15 AM,53.1,50.4,91,29.89,4.0,Calm,Calm,-,0.08,Rain,Heavy Rain,0,2013-03-10 16:15:00
11:35 AM,53.1,50.7,92,29.88,7.0,Calm,Calm,-,0.12,Rain,Light Rain,0,2013-03-10 16:35:00
11:55 AM,53.6,51.1,91,29.87,7.0,ESE,5.8,-,0.16,Rain,Light Rain,120,2013-03-10 16:55:00
12:35 PM,53.8,51.3,91,29.90,10.0,South,6.9,-,0.01,Rain,Light Rain,180,2013-03-10 17:35:00
12:55 PM,54.3,51.8,91,29.88,10.0,Calm,Calm,-,0.05,Rain,Light Rain,0,2013-03-10 17:55:00
1:15 PM,55.4,52.3,89,29.88,10.0,South,3.5,-,0.01,,Overcast,170,2013-03-10 18:15:00
1:35 PM,55.4,52.7,91,29.86,10.0,SSE,3.5,-,0.01,Rain,Light Rain,150,2013-03-10 18:35:00
1:55 PM,54.9,52.0,90,29.89,10.0,South,5.8,-,0.01,Rain,Light Rain,190,2013-03-10 18:55:00
2:15 PM,55.8,53.1,91,29.87,10.0,Calm,Calm,-,0.01,Rain,Light Rain,0,2013-03-10 19:15:00
2:35 PM,56.5,52.5,87,29.87,10.0,SSW,5.8,-,0.01,Thunderstorm,Overcast,210,2013-03-10 19:35:00
2:55 PM,57.2,53.1,86,29.86,10.0,SW,4.6,-,0.01,Rain,Light Rain,220,2013-03-10 19:55:00
3:15 PM,57.2,52.5,84,29.87,10.0,SSW,6.9,-,N/A,,Overcast,200,2013-03-10 20:15:00
3:35 PM,57.6,52.7,84,29.87,10.0,SW,5.8,-,N/A,Rain,Light Rain,220,2013-03-10 20:35:00
3:55 PM,58.1,52.7,82,29.86,10.0,WSW,4.6,-,N/A,,Overcast,240,2013-03-10 20:55:00
4:15 PM,59.2,53.1,80,29.86,10.0,WSW,6.9,-,N/A,,Overcast,240,2013-03-10 21:15:00
4:35 PM,59.4,52.5,78,29.86,10.0,WSW,6.9,-,N/A,,Overcast,250,2013-03-10 21:35:00
4:55 PM,59.4,52.9,79,29.86,10.0,West,8.1,-,N/A,,Overcast,260,2013-03-10 21:55:00
5:15 PM,61.3,52.2,72,29.85,10.0,WNW,6.9,-,N/A,,Overcast,300,2013-03-10 22:15:00
5:35 PM,60.8,50.0,68,29.85,10.0,West,8.1,-,N/A,,Mostly Cloudy,270,2013-03-10 22:35:00
5:55 PM,61.0,48.2,63,29.85,10.0,West,5.8,-,N/A,,Scattered Clouds,280,2013-03-10 22:55:00
6:15 PM,61.3,45.0,55,29.85,10.0,WNW,15.0,19.6,N/A,,Mostly Cloudy,300,2013-03-10 23:15:00
6:35 PM,60.3,44.1,55,29.86,10.0,WNW,10.4,16.1,N/A,,Scattered Clouds,290,2013-03-10 23:35:00
6:55 PM,59.5,42.3,53,29.86,10.0,West,8.1,-,N/A,,Scattered Clouds,280,2013-03-10 23:55:00
7:15 PM,57.9,41.0,53,29.89,10.0,WNW,8.1,-,N/A,,Clear,290,2013-03-11 00:15:00
7:35 PM,56.3,40.1,55,29.90,10.0,WNW,12.7,17.3,N/A,,Scattered Clouds,290,2013-03-11 00:35:00
7:55 PM,54.5,40.1,58,29.91,10.0,NW,13.8,20.7,N/A,,Mostly Cloudy,310,2013-03-11 00:55:00
8:15 PM,52.7,39.2,60,29.93,10.0,WNW,9.2,18.4,N/A,,Scattered Clouds,300,2013-03-11 01:15:00
8:35 PM,51.3,38.8,63,29.94,10.0,WNW,15.0,19.6,N/A,,Scattered Clouds,300,2013-03-11 01:35:00
9:15 PM,49.3,38.3,66,29.97,10.0,WNW,12.7,23.0,N/A,,Scattered Clouds,300,2013-03-11 02:15:00
9:35 PM,48.4,38.1,68,29.98,10.0,West,10.4,16.1,N/A,,Clear,280,2013-03-11 02:35:00
9:55 PM,47.8,36.9,66,30.00,10.0,WNW,13.8,20.7,N/A,,Scattered Clouds,290,2013-03-11 02:55:00
10:15 PM,46.9,35.2,64,30.01,10.0,WNW,12.7,18.4,N/A,,Scattered Clouds,290,2013-03-11 03:15:00
10:35 PM,46.4,34.9,64,30.01,10.0,WNW,10.4,16.1,N/A,,Scattered Clouds,300,2013-03-11 03:35:00
10:55 PM,46.0,34.9,65,30.02,10.0,West,5.8,-,N/A,,Mostly Cloudy,280,2013-03-11 03:55:00
11:15 PM,46.4,35.1,65,30.02,10.0,WNW,8.1,-,N/A,,Overcast,290,2013-03-11 04:15:00
11:35 PM,46.4,34.9,64,30.01,10.0,WNW,6.9,-,N/A,,Overcast,290,2013-03-11 04:35:00
12:15 AM,46.0,35.2,66,30.00,10.0,WNW,6.9,-,N/A,,Overcast,300,2013-03-11 05:15:00
12:35 AM,45.7,34.5,65,29.98,10.0,WNW,8.1,-,N/A,,Overcast,290,2013-03-11 05:35:00
12:55 AM,45.5,32.5,61,30.01,10.0,West,10.4,19.6,N/A,,Overcast,270,2013-03-11 05:55:00